Lihue, HI

12:38 AM HST on December 14, 2017 (GMT -1000)
Lihue

Weather History for PHLI - October, 2014

Change the Weather History Date:

Wednesday, October 29, 2014

  Actual Average Record
Temperature  
Mean Temperature 81 °F 77 °F  
Max Temperature 85 °F 82 °F 88 °F (1978)
Min Temperature 76 °F 72 °F 65 °F (1966)
Degree Days  
Heating Degree Days 0 0  
Month to date heating degree days 0 0  
Since 1 July heating degree days 0 0  
Cooling Degree Days 16 12  
Month to date cooling degree days 453 384  
Year to date cooling degree days 3448 3343  
Growing Degree Days 30 (Base 50)    
Moisture  
Dew Point 69 °F    
Average Humidity 70    
Maximum Humidity 82    
Minimum Humidity 58    
Precipitation  
Precipitation 0.12 in 0.14 in 3.89 in (1982)
Month to date precipitation 2.04 3.53  
Year to date precipitation 27.61 27.10  
Snow  
Snow 0.00 in - - ()
Month to date snowfall 0.0  
Since 1 July snowfall 0.0  
Since 1 September snowfall 0.0  
Snow Depth 0.00 in    
Sea Level Pressure  
Sea Level Pressure 30.10 in    
Wind  
Wind Speed 15 mph (NE)    
Max Wind Speed 20 mph    
Max Gust Speed 23 mph    
Visibility 10 miles    
Events Rain    
T = Trace of Precipitation, MM = Missing Value Source: NWS Daily Summary

Daily Weather History Graph

Daily Weather History Graph

Search for Another Location

Airport or City:

Trip Planner

Search our weather history database for the weather conditions in past years. The results will help you decide how hot, cold, wet, or windy it might be!

Date:

Astronomy

Oct. 29, 2014 Rise Set
Actual Time 6:39 AM HST 6:02 PM HST
Civil Twilight 6:16 AM HST 6:24 PM HST
Nautical Twilight 5:50 AM HST 6:51 PM HST
Astronomical Twilight 5:24 AM HST 7:17 PM HST
Moon 11:59 AM HST (10/29) 11:30 PM HST (10/29)
Length of Visible Light 12h 08m
Length of Day
11h 22m
Waxing Crescent, 37% of the Moon is Illuminated
Oct 29
Waxing Crescent
Oct 30
First Quarter
Nov 6
Full
Nov 14
Last Quarter
Nov 22
New

Hourly Weather History & Observations

Time (HST) Temp. Heat Index Dew Point Humidity Pressure Visibility Wind Dir Wind Speed Gust Speed Precip Events Conditions
12:53 AM 79.0 °F - 70.0 °F 74% 30.09 in 10.0 mi ENE 15.0 mph - 0.01 in   Overcast
1:53 AM 78.1 °F - 69.1 °F 74% 30.08 in 10.0 mi ENE 13.8 mph - 0.01 in   Mostly Cloudy
2:53 AM 77.0 °F - 71.1 °F 82% 30.07 in 10.0 mi NE 19.6 mph - 0.00 in Rain Light Rain
3:53 AM 78.1 °F - 68.0 °F 71% 30.07 in 10.0 mi ENE 11.5 mph - 0.02 in   Clear
4:39 AM 78.8 °F - 69.8 °F 74% 30.08 in 10.0 mi NE 10.4 mph - N/A   Mostly Cloudy
4:53 AM 78.1 °F - 70.0 °F 76% 30.07 in 10.0 mi NE 10.4 mph - N/A   Mostly Cloudy
5:40 AM 78.8 °F - 68.0 °F 69% 30.09 in 10.0 mi ENE 15.0 mph - N/A   Mostly Cloudy
5:53 AM 78.1 °F - 68.0 °F 71% 30.08 in 10.0 mi ENE 12.7 mph - N/A   Scattered Clouds
6:53 AM 78.1 °F - 66.9 °F 68% 30.10 in 10.0 mi NE 12.7 mph - N/A   Partly Cloudy
7:36 AM 80.6 °F 83.2 °F 68.0 °F 65% 30.11 in 10.0 mi ENE 12.7 mph - N/A   Mostly Cloudy
7:53 AM 80.1 °F 82.7 °F 68.0 °F 67% 30.11 in 10.0 mi ENE 12.7 mph - N/A   Mostly Cloudy
8:53 AM 81.0 °F 84.1 °F 69.1 °F 67% 30.13 in 10.0 mi NE 13.8 mph - 0.02 in   Scattered Clouds
9:16 AM 82.4 °F 86.3 °F 69.8 °F 66% 30.14 in 10.0 mi ENE 15.0 mph - N/A   Mostly Cloudy
9:49 AM 84.2 °F 88.4 °F 69.8 °F 62% 30.14 in 10.0 mi ENE 13.8 mph - N/A   Mostly Cloudy
9:53 AM 84.0 °F 87.8 °F 69.1 °F 61% 30.14 in 10.0 mi ENE 16.1 mph - N/A   Mostly Cloudy
10:53 AM 84.0 °F 87.0 °F 68.0 °F 58% 30.12 in 10.0 mi NE 16.1 mph - 0.02 in   Partly Cloudy
11:53 AM 84.0 °F 87.0 °F 68.0 °F 58% 30.11 in 10.0 mi NE 17.3 mph - 0.02 in   Scattered Clouds
12:53 PM 84.9 °F 88.8 °F 69.1 °F 59% 30.09 in 10.0 mi NE 17.3 mph - 0.02 in   Scattered Clouds
1:53 PM 84.0 °F 87.0 °F 68.0 °F 58% 30.06 in 10.0 mi NE 16.1 mph - 0.03 in   Scattered Clouds
2:53 PM 82.0 °F 84.5 °F 66.9 °F 60% 30.05 in 10.0 mi NE 17.3 mph - 0.02 in   Clear
3:53 PM 82.9 °F 85.0 °F 66.0 °F 56% 30.05 in 10.0 mi NE 16.1 mph - 0.02 in   Clear
4:53 PM 80.1 °F 81.9 °F 64.9 °F 60% 30.06 in 10.0 mi NNE 13.8 mph - 0.02 in   Clear
5:53 PM 79.0 °F - 66.9 °F 66% 30.07 in 10.0 mi NE 18.4 mph - 0.03 in   Scattered Clouds
6:53 PM 78.1 °F - 68.0 °F 71% 30.09 in 10.0 mi NNE 15.0 mph - N/A   Scattered Clouds
7:53 PM 79.0 °F - 68.0 °F 69% 30.11 in 10.0 mi NNE 15.0 mph - N/A   Mostly Cloudy
8:31 PM 78.8 °F - 69.8 °F 74% 30.12 in 10.0 mi NE 16.1 mph - N/A   Mostly Cloudy
8:53 PM 79.0 °F - 70.0 °F 74% 30.12 in 10.0 mi NE 11.5 mph - N/A   Mostly Cloudy
9:25 PM 78.8 °F - 69.8 °F 74% 30.13 in 10.0 mi ENE 15.0 mph - N/A   Scattered Clouds
9:53 PM 79.0 °F - 71.1 °F 77% 30.12 in 10.0 mi ENE 16.1 mph - N/A   Scattered Clouds
10:12 PM 78.8 °F - 69.8 °F 74% 30.13 in 10.0 mi ENE 17.3 mph - N/A   Mostly Cloudy
10:53 PM 78.1 °F - 70.0 °F 76% 30.12 in 10.0 mi ENE 19.6 mph - 0.01 in   Mostly Cloudy
11:06 PM 78.8 °F - 69.8 °F 74% 30.13 in 10.0 mi ENE 17.3 mph - 0.01 in   Mostly Cloudy
11:28 PM 77.0 °F - 71.6 °F 83% 30.13 in 10.0 mi ENE 16.1 mph - 0.02 in Rain Light Rain
11:53 PM 75.9 °F - 70.0 °F 82% 30.12 in 10.0 mi ENE 12.7 mph - 0.02 in Rain Light Rain